Regional Weather Roundup
Issued by NWS

Home | Current Version | Previous Version | Graphics & Text | Print | Product List | Glossary On
Versions: 1 2 3 4 5 6 7 8 9 10 11 12 13 14 15 16 17 18 19 20 21 22 23 24 25 26 27
000
ASUS45 KBOU 220207
RWRCO

WEATHER ROUNDUP FOR COLORADO
NATIONAL WEATHER SERVICE DENVER/BOULDER CO
800 PM MDT FRI JUL 21 2017

NOTE: "FAIR" INDICATES FEW OR NO CLOUDS BELOW 12000 FEET WITH NO
SIGNIFICANT WEATHER AND/OR OBSTRUCTIONS TO VISIBILITY.

COZ001>005-013-030-031-220300-
...NORTHWEST COLORADO...

CITY           SKY/WX    TMP DP  RH WIND       PRES   REMARKS
CRAIG          CLOUDY    64  52  64 N5        30.26R
HAYDEN         FAIR     N/A N/A N/A SE16      30.30F
MEEKER         CLOUDY    68  51  54 E12G17    30.25F
RABBIT EARS PA CLOUDY    46  45  93 N10       30.59R
STEAMBOAT SPGS CLOUDY    57  54  89 CALM      30.35R
WALDEN         CLOUDY    55  50  82 NW7       30.46R
$$

COZ006>008-011-220300-
...WEST CENTRAL VALLEYS...

CITY           SKY/WX    TMP DP  RH WIND       PRES   REMARKS
GRAND JUNCTION RAIN      68  64  87 NW6       30.20R
MONTROSE       FAIR      73  56  54 W6        30.20R
EAGLE          RAIN      61  57  87 W6        30.37R
RIFLE          LGT RAIN  64  62  93 W22G30    30.24R
DELTA          FAIR      77  56  47 W16       30.16R
NUCLA          FAIR      75  48  38 CALM      30.23R
$$

COZ017>023-064>068-220300-
...SOUTHWEST COLORADO...

CITY           SKY/WX    TMP DP  RH WIND       PRES   REMARKS
DURANGO        CLOUDY    62  54  74 N14       30.23S
CORTEZ         CLOUDY    77  57  50 NW3       30.16R
PAGOSA SPRINGS FAIR      61  53  73 NW10G18   30.31S
TELLURIDE      CLOUDY    63  53  70 CALM      30.44R
WOLF CREEK PAS CLOUDY    45  45 100 SW14      30.67S
$$

COZ009-010-012-014-032>034-037-058>063-220300-
...CENTRAL COLORADO...

CITY           SKY/WX    TMP DP  RH WIND       PRES   REMARKS
ASPEN          FAIR      61  53  75 SE7       30.34S
BUENA VISTA    FAIR      65  47  52 NW8       30.36R
COPPER MTN     LGT RAIN  54  45  71 CALM      30.66F
BERTHOUD PASS  LGT RAIN  41  27  56 SE14      30.70F
COTTONWOOD PAS CLOUDY    61  45  55 E9        30.50R
GUNNISON       FAIR      64  53  67 W6        30.32R
KREMMLING      MOCLDY    66  52  59 N6        30.39R
LEADVILLE      CLOUDY    54  47  77 NE7       30.46F
MONARCH PASS   FAIR      52  41  66 E17       30.74S
SALIDA         FAIR      73  48  40 N10       30.38R
SUNLIGHT       MOCLDY    48  45  87 NW7G17    30.61R THUNDER
WILKERSON PASS LGT RAIN  50  41  71 S5G17     30.64R
$$

COZ069>075-220300-
...SAN LUIS VALLEY/SANGRE DE CRISTO MOUNTAINS...

CITY           SKY/WX    TMP DP  RH WIND       PRES   REMARKS
ALAMOSA        MOCLDY    74  42  31 SW14G24   30.22S
DEL NORTE      FAIR      72  44  37 S7        30.29R
LA VETA PASS   NOT AVBL
SAGUACHE         N/A    N/A N/A N/A MISG        N/A
$$

COZ035-036-038>040-220300-
...NORTHERN COLORADO FRONT RANGE...

CITY           SKY/WX    TMP DP  RH WIND       PRES   REMARKS
DENVER INTL AP LGT RAIN  68  56  65 N28       30.16F
DMNS CITY PARK   N/A     72  53  51 NW9       30.19R
AURORA         MOCLDY    69  56  61 NW7       30.20S
FRONT RANGE AP FAIR      70  55  60 N16       30.20R
ERIE MUNI ARPT LGT RAIN  68  61  77 N5        30.19R
BOULDER MUN AP RAIN      66  61  82 NW5       30.20R
CENTENNIAL     MOCLDY    71  55  56 VRB7      30.22R
BROOMFIELD     FAIR      68  59  73 N5        30.22S
FORT COLLINS   CLOUDY    74  56  53 SW9       30.16R
LONGMONT       LGT RAIN  71  58  64 W9        30.21R
$$

COZ041-046-047-076>085-087-088-220300-
...PIKES PEAK/PALMER DIVIDE AND SOUTHERN FOOTHILLS...

CITY           SKY/WX    TMP DP  RH WIND       PRES   REMARKS
COLO. SPRINGS  MOCLDY    75  50  41 N24G36    30.20R THUNDER
A. F. ACADEMY  DRIZZLE   72  49  44 NW14G21   30.24R
SCHRIEVER AFB  SHOWER    71  51  47 NW8G23    30.19R
CHEYENNE MTN   LGT RAIN  72  50  46 NW12G25   30.17F
ELLICOTT       MOCLDY   N/A N/A N/A NE18G36   30.09F THUNDER
FALCON           N/A     70  48  46 NW18G24   30.26R
FORT CARSON    FAIR      77  50  38 N15       30.13S
LIMON          TSTM      64  60  87 N25G39    30.13R
MONUMENT HILL  MOCLDY    63  54  72 N16G24    30.28R
CANON CITY     RAIN      73  55  53 W20       30.07R
WALSENBURG     MOCLDY    75  55  50 SW12      30.10R
TRINIDAD       FAIR      83  46  27 NW7       30.06R
$$

COZ042>045-048>051-090-091-220300-
...NORTHEAST COLORADO...

CITY           SKY/WX    TMP DP  RH WIND       PRES   REMARKS
GREELEY ARPT   FAIR      73  58  59 SE6       30.13F
AKRON          TSTM      66  59  78 NW18G28   30.09R
BURLINGTON     FAIR      81  57  43 E7        29.95R
WRAY           NOT AVBL
YUMA           FAIR      82  54  36 W9G17     29.96R
STERLING       LGT RAIN  77  55  47 NW26G43   30.03R
HOLYOKE        FAIR      86  48  26 N8        29.93S
FORT MORGAN    CLOUDY    69  56  62 W24G30    30.10F
$$

COZ086-089-092>099-220300-
...SOUTHEAST COLORADO...

CITY           SKY/WX    TMP DP  RH WIND       PRES   REMARKS
PUEBLO         FAIR      87  46  24 NW26G36   29.99R
LA JUNTA       FAIR      89  55  31 E5        29.93R
LAMAR          LGT RAIN  87  51  28 S12       29.88R
SPRINGFIELD      N/A     82  49  31 S12       29.97R
$$




USA.gov is the U.S. government's official web portal to all federal, state and local government web resources and services.